| time (UTC) | temp C | wind direction | speed KPH | gust KPH | rain 1hr cm | rain 24hr cm | rain mn cm | humidity % | barometer mb |
| 20260506143038 | 21 | 197 | 0.0 | 14.5 | 0.00 | 0.00 | 0.00 | 80 | 1013.8 |
| 20260506141634 | 21 | 207 | 1.6 | 9.7 | 0.00 | 0.00 | 0.00 | 82 | 1013.7 |
| 20260506140031 | 20 | 205 | 0.0 | 19.3 | 0.00 | 0.00 | 0.00 | 83 | 1013.5 |
| 20260506134531 | 20 | 144 | 0.0 | 8.0 | 0.00 | 0.00 | 0.00 | 85 | 1013.2 |
| 20260506133026 | 20 | 205 | 0.0 | 4.8 | 0.00 | 0.00 | 0.00 | 87 | 1013.0 |
| 20260506131532 | 19 | 187 | 0.0 | 4.8 | 0.00 | 0.00 | 0.00 | 88 | 1012.9 |
| 20260506130021 | 19 | 146 | 0.0 | 12.9 | 0.00 | 0.00 | 0.00 | 89 | 1012.7 |
| 20260506124520 | 18 | 145 | 0.0 | 3.2 | 0.00 | 0.00 | 0.00 | 89 | 1012.7 |
| 20260506123019 | 18 | 193 | 0.0 | 3.2 | 0.00 | 0.00 | 0.00 | 89 | 1012.9 |
| 20260506121517 | 18 | 225 | 0.0 | 1.6 | 0.00 | 0.00 | 0.00 | 89 | 1012.7 |
| 20260506120020 | 18 | 133 | 0.0 | 0.0 | 0.00 | 0.00 | 0.00 | 89 | 1012.7 |
| 20260506114521 | 18 | 184 | 0.0 | 0.0 | 0.00 | 0.00 | 0.00 | 89 | 1012.6 |
| 20260506113024 | 18 | 193 | 0.0 | 0.0 | 0.00 | 0.00 | 0.00 | 89 | 1012.2 |
| 20260506111513 | 18 | 182 | 0.0 | 0.0 | 0.00 | 0.00 | 0.00 | 89 | 1012.3 |
| 20260506110012 | 18 | 176 | 0.0 | 0.0 | 0.00 | 0.00 | 0.00 | 88 | 1012.2 |
| 20260506104511 | 18 | 194 | 0.0 | 0.0 | 0.00 | 0.00 | 0.00 | 87 | 1012.1 |
| 20260506103013 | 18 | 163 | 0.0 | 4.8 | 0.00 | 0.00 | 0.00 | 87 | 1011.8 |
| 20260506101510 | 18 | 170 | 0.0 | 0.0 | 0.00 | 0.00 | 0.00 | 87 | 1011.5 |
| 20260506100011 | 18 | 195 | 0.0 | 0.0 | 0.00 | 0.00 | 0.00 | 86 | 1011.3 |
| 20260506094509 | 18 | 178 | 0.0 | 1.6 | 0.00 | 0.00 | 0.00 | 86 | 1011.2 |
| 20260506093007 | 18 | 196 | 0.0 | 0.0 | 0.00 | 0.00 | 0.00 | 86 | 1011.3 |
| 20260506091507 | 18 | 199 | 0.0 | 1.6 | 0.00 | 0.00 | 0.00 | 85 | 1011.2 |
| 20260506090006 | 18 | 184 | 0.0 | 0.0 | 0.00 | 0.00 | 0.00 | 84 | 1011.1 |
| 20260506084505 | 18 | 180 | 0.0 | 3.2 | 0.00 | 0.00 | 0.00 | 84 | 1010.9 |
| 20260506083004 | 18 | 181 | 0.0 | 6.4 | 0.00 | 0.00 | 0.00 | 83 | 1011.0 |
| 20260506081502 | 18 | 174 | 0.0 | 1.6 | 0.00 | 0.00 | 0.00 | 82 | 1011.1 |
| 20260506073059 | 18 | 156 | 0.0 | 1.6 | 0.00 | 0.00 | 0.00 | 80 | 1011.4 |
| 20260506071604 | 18 | 170 | 0.0 | 3.2 | 0.00 | 0.00 | 0.00 | 79 | 1011.4 |
| 20260506061553 | 19 | 221 | 0.0 | 3.2 | 0.00 | 0.00 | 0.00 | 74 | 1012.1 |
| 20260506044523 | 17 | 125 | 0.0 | 0.0 | 0.00 | 0.00 | 0.00 | 68 | 1011.7 |
| 20260506043019 | 18 | 165 | 0.0 | 0.0 | 0.00 | 0.00 | 0.00 | 67 | 1012.1 |
| 20260506041518 | 18 | 166 | 0.0 | 0.0 | 0.00 | 0.00 | 0.00 | 67 | 1012.0 |
| 20260506040021 | 18 | 167 | 0.0 | 0.0 | 0.00 | 0.00 | 0.00 | 65 | 1011.8 |
| 20260506034520 | 18 | 165 | 0.0 | 0.0 | 0.00 | 0.00 | 0.00 | 64 | 1011.7 |
| 20260506033014 | 18 | 132 | 0.0 | 0.0 | 0.00 | 0.00 | 0.00 | 64 | 1012.1 |
| 20260506031514 | 18 | 132 | 0.0 | 0.0 | 0.00 | 0.00 | 0.00 | 62 | 1012.1 |
| 20260506030026 | 18 | 170 | 0.0 | 0.0 | 0.00 | 0.00 | 0.00 | 63 | 1011.9 |
| 20260506024525 | 18 | 183 | 0.0 | 1.6 | 0.00 | 0.00 | 0.00 | 63 | 1012.1 |
| 20260506023013 | 18 | 183 | 0.0 | 0.0 | 0.00 | 0.00 | 0.00 | 62 | 1012.1 |
| 20260506021511 | 18 | 183 | 0.0 | 0.0 | 0.00 | 0.00 | 0.00 | 60 | 1012.1 |
| 20260506020011 | 19 | 183 | 0.0 | 0.0 | 0.00 | 0.00 | 0.00 | 59 | 1011.8 |
| 20260506014509 | 19 | 183 | 0.0 | 0.0 | 0.00 | 0.00 | 0.00 | 57 | 1011.7 |
| 20260506013013 | 20 | 183 | 0.0 | 0.0 | 0.00 | 0.00 | 0.00 | 55 | 1011.9 |
| 20260506011510 | 21 | 183 | 0.0 | 0.0 | 0.00 | 0.00 | 0.00 | 55 | 1011.6 |
| 20260506010011 | 21 | 183 | 0.0 | 0.0 | 0.00 | 0.00 | 0.00 | 51 | 1011.6 |
| 20260506003008 | 22 | 183 | 0.0 | 1.6 | 0.00 | 0.00 | 0.00 | 46 | 1011.9 |
| 20260506001507 | 23 | 183 | 0.0 | 3.2 | 0.00 | 0.00 | 0.00 | 44 | 1011.9 |
| 20260506000007 | 23 | 194 | 0.0 | 3.2 | 0.00 | 0.00 | 0.00 | 43 | 1012.0 |
| 20260505234506 | 24 | 191 | 0.0 | 0.0 | 0.00 | 0.00 | 0.00 | 42 | 1011.8 |
| 20260505233006 | 25 | 191 | 0.0 | 0.0 | 0.00 | 0.00 | 0.00 | 40 | 1011.9 |
| 20260505231505 | 25 | 162 | 0.0 | 6.4 | 0.00 | 0.00 | 0.00 | 39 | 1012.0 |
| 20260505230011 | 25 | 192 | 0.0 | 4.8 | 0.00 | 0.00 | 0.00 | 38 | 1011.7 |
| 20260505224504 | 26 | 162 | 0.0 | 9.7 | 0.00 | 0.00 | 0.00 | 37 | 1011.5 |
| 20260505223002 | 26 | 192 | 0.0 | 3.2 | 0.00 | 0.00 | 0.00 | 38 | 1011.4 |
| 20260505221502 | 26 | 148 | 0.0 | 4.8 | 0.00 | 0.00 | 0.00 | 37 | 1011.4 |
| 20260505220004 | 27 | 190 | 0.0 | 4.8 | 0.00 | 0.00 | 0.00 | 36 | 1011.3 |
| 20260505214600 | 27 | 205 | 0.0 | 6.4 | 0.00 | 0.00 | 0.00 | 37 | 1011.4 |
| 20260505214503 | 27 | 162 | 0.0 | 6.4 | 0.00 | 0.00 | 0.00 | 36 | 1011.3 |
| 20260505213102 | 27 | 186 | 0.0 | 9.7 | 0.00 | 0.00 | 0.00 | 36 | 1011.4 |
| 20260505211558 | 27 | 153 | 0.0 | 11.3 | 0.00 | 0.00 | 0.00 | 36 | 1011.4 |
| 20260505210056 | 27 | 167 | 0.0 | 4.8 | 0.00 | 0.00 | 0.00 | 36 | 1011.5 |
| 20260505204601 | 27 | 207 | 0.0 | 6.4 | 0.00 | 0.00 | 0.00 | 36 | 1011.7 |
| 20260505203100 | 27 | 186 | 0.0 | 6.4 | 0.00 | 0.00 | 0.00 | 36 | 1012.0 |
| 20260505201548 | 27 | 126 | 0.0 | 9.7 | 0.00 | 0.00 | 0.00 | 36 | 1012.2 |
| 20260505200049 | 27 | 161 | 0.0 | 4.8 | 0.00 | 0.00 | 0.00 | 35 | 1012.4 |
| 20260505194555 | 27 | 126 | 1.6 | 8.0 | 0.00 | 0.00 | 0.00 | 35 | 1012.5 |
| 20260505193041 | 26 | 124 | 0.0 | 4.8 | 0.00 | 0.00 | 0.00 | 38 | 1012.6 |
| 20260505191540 | 26 | 153 | 0.0 | 6.4 | 0.00 | 0.00 | 0.00 | 37 | 1012.9 |
| 20260505190041 | 26 | 188 | 0.0 | 8.0 | 0.00 | 0.00 | 0.00 | 40 | 1012.8 |
| 20260505184534 | 26 | 161 | 0.0 | 4.8 | 0.00 | 0.00 | 0.00 | 40 | 1013.1 |
| 20260505181531 | 26 | 187 | 0.0 | 9.7 | 0.00 | 0.00 | 0.00 | 39 | 1013.5 |
| 20260505180029 | 25 | 174 | 0.0 | 6.4 | 0.00 | 0.00 | 0.00 | 39 | 1013.8 |
| 20260505174527 | 25 | 190 | 0.0 | 12.9 | 0.00 | 0.00 | 0.00 | 42 | 1014.1 |
| 20260505173038 | 25 | 165 | 0.0 | 6.4 | 0.00 | 0.00 | 0.00 | 44 | 1014.4 |
| 20260505171525 | 25 | 175 | 0.0 | 9.7 | 0.00 | 0.00 | 0.00 | 43 | 1014.4 |
| 20260505170026 | 25 | 173 | 1.6 | 4.8 | 0.00 | 0.00 | 0.00 | 42 | 1014.4 |
| 20260505164542 | 24 | 163 | 0.0 | 6.4 | 0.00 | 0.00 | 0.00 | 47 | 1014.5 |
| 20260505163018 | 24 | 158 | 0.0 | 8.0 | 0.00 | 0.00 | 0.00 | 47 | 1014.5 |
| 20260505161517 | 24 | 180 | 0.0 | 12.9 | 0.00 | 0.00 | 0.00 | 47 | 1014.4 |
| 20260505153011 | 22 | 172 | 0.0 | 17.7 | 0.00 | 0.00 | 0.00 | 52 | 1014.9 |
| 20260505151504 | 22 | 157 | 0.0 | 4.8 | 0.00 | 0.00 | 0.00 | 55 | 1015.0 |